Flag for Germany Weather past 2 weeks in Buxtehude, Lower Saxony, Germany

Now
55 °F

Partly sunny.


Feels Like: 51 °F
Forecast: 47 / 60 °F
Wind: 20 mph from Northwest

Location: Hamburg-Finkenwerder

Current Time: May 27, 2015 at 12:53:24 PM

Latest Report: May 27, 2015 at 12:20 PM


Visibility: N/A

Pressure: 30.15 "Hg

Humidity: 59%

Dew point: 41 °F

Location of BuxtehudeLocation

Historic Weather in Buxtehude — Graph

°F

Buxtehude temperature yesterday

Maximum temperature yesterday: 57 °F (at 1:20 PM)
Minimum temperature yesterday: 48 °F (at 6:20 AM)
Average temperature yesterday: 54 °F

Past Weeks' High & Low Weather Summary

 TemperatureHumidityPressure
High68 °F (May 12, 11:50 AM)100% (May 16, 5:20 PM)30.30 "Hg (May 16, 5:20 PM)
Low43 °F (May 21, 6:20 AM)40% (May 12, 12:50 PM)29.59 "Hg (May 19, 6:20 AM)
Average55 °F71%30.00 "Hg
* Reported May 12 11:20 AM — May 27 11:20 AM, Buxtehude, Weather by CustomWeather, © 2015

Note: Actual official high and low records may vary slightly from our data, if they occured in-between our weather recording intervals... More about our weather records

Advertising

Buxtehude weather history for previous 24 hours

 ConditionsComfort  
Time TempWeatherWind HumidityBarometerVisibility
11:20 AM
Wed, May 27
54 °FPartly sunny.15 mph72%30.18 "HgN/A
10:50 AM52 °FPartly sunny.13 mph77%30.18 "HgN/A
10:20 AM52 °FPartly sunny.14 mph72%30.18 "HgN/A
9:50 AM52 °FPartly sunny.15 mph67%30.15 "HgN/A
9:20 AM52 °FPartly sunny.14 mph72%30.15 "HgN/A
8:50 AM50 °FScattered showers. Partly sunny.16 mph82%30.15 "HgN/A
8:20 AM50 °FPartly sunny.14 mph82%30.15 "HgN/A
7:50 AM50 °FPartly sunny.14 mph82%30.15 "HgN/A
7:20 AM50 °FPartly sunny.10 mph88%30.15 "HgN/A
6:50 AM48 °FPartly sunny.12 mph100%30.12 "HgN/A
6:20 AM48 °FPartly sunny.14 mph100%30.12 "HgN/A
7:50 PM
Tue, May 26
54 °FScattered clouds.17 mph63%30.09 "HgN/A
7:20 PM54 °FSprinkles. Scattered clouds.17 mph67%30.09 "HgN/A
6:50 PM55 °FScattered clouds.17 mph63%30.09 "HgN/A
6:20 PM57 °FScattered clouds.18 mph59%30.07 "HgN/A
5:50 PM57 °FScattered clouds.17 mph55%30.07 "HgN/A
5:20 PM57 °FScattered clouds.17 mph55%30.07 "HgN/A
4:50 PM55 °FScattered clouds.20 mph59%30.07 "HgN/A
4:20 PM57 °FScattered clouds.17 mph55%30.07 "HgN/A
3:50 PM57 °FScattered clouds.18 mph55%30.04 "HgN/A
3:20 PM57 °FScattered clouds.18 mph55%30.04 "HgN/A
2:50 PM57 °FScattered clouds.16 mph59%30.04 "HgN/A
2:20 PM57 °FScattered clouds.17 mph51%30.04 "HgN/A
1:50 PM57 °FScattered clouds.15 mph55%30.04 "HgN/A
1:20 PM57 °FScattered clouds.16 mph59%30.01 "HgN/A
12:50 PM55 °FScattered clouds.14 mph59%30.01 "HgN/A
12:20 PM55 °FScattered showers. Scattered clouds.14 mph72%30.01 "HgN/A
Weather by CustomWeather, © 2015

See weather overviewHow to use our weather pages